Wind_Speed
59 59 59 59 59 60 60 60 60 60 60 60 60 60 60 60 60 60 61 62 64 66 68 69 70 70 70 71 71 74 77 79 80 80 82 83 81 78 77 77 77 78 78 77 77 76 75 74 74 74 73 72 72 71 71 70 69 70 70 71 72 71 69 67 66 65 65 64 63 63 63 63 63 63 63 63 63 63 62 62 61 60 60 58 58 57 56 55
60 61 61 61 62 62 62 62 63 63 63 63 62 62 62 62 61 61 61 61 62 64 66 68 70 71 70 71 71 72 73 76 79 82 85 83 79 78 79 79 79 78 78 78 78 77 76 75 75 75 74 74 73 72 71 70 70 70 72 72 73 72 69 68 67 66 65 65 64 64 63 63 63 64 64 64 64 64 63 63 63 62 61 59 59 58 57 57
62 63 63 63 64 65 65 65 65 66 66 66 65 65 65 64 64 63 63 63 63 63 64 66 68 70 71 71 71 72 72 73 76 82 86 83 80 80 80 81 80 79 78 78 78 77 77 76 76 76 75 75 75 73 72 71 71 72 73 73 73 71 69 68 67 66 66 65 64 64 64 64 64 64 65 65 65 65 64 64 64 63 61 60 60 60 59 59
64 65 65 66 66 66 66 66 66 67 67 67 68 68 67 67 66 66 65 65 65 64 64 65 67 68 70 71 72 72 72 72 74 80 82 81 82 82 81 82 81 80 78 77 77 77 77 76 76 77 77 77 76 75 73 73 73 74 75 75 73 70 68 68 67 66 66 65 65 64 65 65 65 65 65 66 66 65 64 64 64 63 62 61 61 61 61 61
66 66 66 65 65 64 64 64 64 65 66 66 67 68 69 69 69 68 68 67 67 67 66 66 66 67 68 70 71 71 72 72 74 78 78 79 82 83 84 83 82 80 79 78 78 77 76 76 76 77 77 77 77 75 75 75 75 75 76 75 72 70 68 68 67 66 66 65 65 65 65 65 65 65 65 66 66 65 65 64 64 63 62 62 62 62 62 62
64 64 63 62 61 61 61 62 62 63 64 65 66 67 68 69 70 70 70 70 70 69 69 69 68 67 67 68 69 70 71 71 74 77 77 77 79 82 84 85 83 81 80 79 79 78 77 76 76 76 77 77 76 76 76 75 75 76 76 74 72 70 69 68 67 66 66 65 65 65 65 65 65 65 65 66 65 65 65 64 64 63 63 62 62 62 62 62
62 61 61 61 60 60 60 60 60 61 62 63 65 66 67 68 69 70 71 71 72 72 71 71 70 69 68 67 68 69 68 71 74 76 76 76 76 79 82 85 85 84 83 82 81 79 78 78 77 77 76 76 75 75 75 75 75 76 75 73 71 70 69 68 67 66 66 65 65 65 65 66 65 65 66 66 65 65 64 64 64 64 63 63 63 63 62 62
61 61 61 61 61 61 60 60 60 60 61 62 63 64 66 68 69 70 71 72 73 73 73 73 72 70 69 68 68 67 67 71 75 74 74 75 76 77 79 82 84 86 86 85 83 81 80 79 79 78 77 76 75 75 74 73 73 75 74 73 71 69 68 67 66 66 66 65 65 66 66 66 66 66 67 66 65 64 64 64 64 64 63 63 63 63 62 63
62 62 62 62 62 62 62 62 62 62 62 62 63 63 65 67 69 70 71 72 73 73 75 75 73 72 71 69 68 66 67 73 73 71 73 75 76 76 77 79 81 84 86 86 86 84 83 82 81 80 78 77 76 75 73 71 72 74 73 71 69 68 68 67 66 66 66 66 66 66 67 67 67 68 67 64 63 64 64 64 64 64 64 63 63 62 63 64
63 63 63 63 63 63 64 64 65 65 65 65 65 65 65 66 68 70 71 72 73 73 74 75 75 74 72 71 68 67 70 73 71 70 73 74 75 76 76 77 79 81 83 85 86 87 87 86 84 82 80 78 76 75 73 71 72 74 72 69 67 67 67 66 66 65 65 66 67 67 67 68 68 67 64 63 63 64 63 63 63 64 64 63 63 62 64 64
64 65 65 65 65 66 67 67 68 68 68 68 68 67 67 67 68 69 71 72 74 74 74 74 74 74 73 72 69 70 74 73 70 71 72 73 74 75 76 76 77 79 80 82 84 87 89 89 87 84 82 80 78 77 74 72 73 73 70 67 66 66 66 66 65 65 65 66 67 67 68 68 67 64 62 62 63 63 63 63 63 63 64 63 63 63 64 64
67 67 67 67 68 69 70 70 70 70 70 70 70 70 69 69 68 68 69 71 73 74 74 73 73 73 74 72 71 75 76 72 70 71 71 72 73 74 76 76 77 78 78 80 82 85 87 88 88 87 85 82 81 79 75 74 74 73 71 68 67 67 66 65 64 64 65 66 67 68 68 68 65 61 61 61 62 63 63 63 64 64 64 64 64 64 65 65
70 70 70 71 71 72 73 73 73 72 72 71 71 71 71 69 69 68 69 70 72 74 74 73 72 73 72 71 75 78 75 72 71 71 72 72 73 74 76 77 77 77 78 79 81 82 84 85 87 88 87 85 83 81 77 76 75 74 72 69 68 67 66 65 64 65 66 67 68 68 68 66 62 61 61 62 62 63 63 64 64 65 65 65 65 65 66 65
74 74 74 74 74 75 76 75 75 74 73 72 71 72 71 70 68 68 69 69 70 71 73 73 72 72 71 72 77 77 74 72 72 72 74 74 74 75 76 77 77 77 78 79 79 80 80 81 83 84 85 86 85 83 80 78 77 76 73 71 69 68 67 66 66 67 68 68 68 67 67 65 61 61 62 62 63 64 64 65 65 66 66 65 66 65 65 65
77 77 77 77 77 78 78 77 76 75 74 72 71 72 71 69 67 67 68 68 68 69 71 72 72 71 71 73 77 76 72 72 73 75 76 75 75 75 76 77 77 76 77 78 78 77 78 78 79 80 82 84 85 84 82 81 80 78 75 73 71 69 68 69 70 70 70 69 67 67 68 65 62 62 63 63 64 64 65 66 66 66 65 65 66 65 65 65
79 80 80 80 80 80 79 79 77 76 74 72 71 72 71 68 66 66 66 67 67 67 69 70 71 71 71 74 76 74 71 73 76 77 76 75 75 75 75 75 75 75 76 76 76 76 75 74 75 77 78 81 82 83 83 82 81 80 78 75 73 71 72 73 74 72 70 68 67 67 68 65 64 64 65 65 65 65 66 66 65 65 65 65 65 65 64 65
81 81 81 81 81 81 80 79 78 77 75 73 72 72 70 67 66 65 64 64 65 65 66 69 71 71 72 74 75 73 72 74 76 75 75 76 76 75 74 74 74 74 75 75 74 73 72 72 72 73 75 77 79 80 81 82 82 81 79 77 75 75 76 76 75 72 69 68 67 68 68 66 67 67 66 66 66 66 66 65 65 65 65 64 64 64 64 64
80 82 82 83 82 82 81 80 79 77 75 74 72 71 69 67 66 64 63 63 63 63 64 67 70 71 73 75 75 74 73 74 75 74 74 75 74 74 74 74 73 73 74 73 72 71 70 70 70 71 72 74 75 76 77 79 81 82 81 79 78 79 79 77 74 71 69 67 67 69 70 69 70 68 66 65 65 65 65 65 65 65 65 64 63 63 62 63
78 80 81 82 83 82 81 81 80 78 76 75 73 71 69 68 66 63 61 61 60 61 62 65 69 72 74 76 76 74 74 74 74 73 73 73 73 72 73 73 73 72 72 71 69 68 67 68 68 69 69 70 71 73 75 77 80 82 82 82 82 82 80 76 73 70 68 67 69 71 72 72 70 67 65 65 65 65 65 65 65 65 64 63 62 61 61 62
73 75 77 79 81 81 82 81 81 79 78 76 74 72 70 68 65 62 60 59 59 61 61 63 68 72 74 76 75 74 74 74 73 72 72 72 72 72 73 73 72 71 70 68 67 66 66 66 66 66 67 68 70 72 74 76 78 81 82 83 83 82 79 76 73 70 68 68 71 73 73 72 69 66 65 65 65 65 65 65 64 64 62 61 61 61 61 61
69 70 72 73 75 77 79 80 80 79 78 76 74 73 70 67 64 62 60 59 61 61 60 62 66 70 73 74 74 73 74 73 72 72 72 71 71 71 71 72 70 69 68 67 66 66 65 63 64 65 67 68 69 71 73 74 76 79 81 82 82 81 79 76 73 69 68 71 73 74 73 71 68 65 65 64 64 64 64 63 62 61 61 61 61 60 59 57
67 67 68 69 70 71 73 75 77 77 76 75 74 72 69 65 64 63 61 62 62 62 61 62 64 68 72 74 74 73 73 73 73 72 72 71 70 70 70 70 69 69 68 66 64 64 62 61 62 64 66 67 69 70 70 72 74 76 78 79 79 79 78 76 74 70 70 72 74 74 73 70 67 65 65 64 64 63 62 61 61 60 60 59 58 56 56 55
66 66 67 67 67 68 69 71 72 73 74 74 73 70 66 65 65 64 63 64 63 62 62 61 63 68 71 73 73 72 72 73 73 72 71 70 70 70 70 69 69 68 67 65 63 62 61 60 60 62 65 67 68 68 67 68 70 72 74 76 77 77 77 76 74 71 71 73 75 74 72 68 66 65 64 63 62 61 60 60 59 59 57 55 54 54 55 54
65 65 66 66 67 68 68 68 68 70 71 71 69 67 66 67 67 66 65 65 64 63 63 63 63 65 68 70 71 70 72 73 72 71 70 69 69 69 69 69 68 67 66 65 64 62 60 60 61 63 65 66 67 65 64 64 66 68 71 73 75 76 75 75 74 72 72 74 75 73 70 67 65 64 63 62 60 58 58 57 56 55 54 53 53 54 54 53
63 64 65 66 67 67 67 67 68 69 68 67 66 66 67 68 68 67 66 66 65 64 64 63 62 63 66 65 66 69 72 72 71 70 69 68 68 68 68 68 67 66 66 65 63 61 60 60 62 64 64 65 64 62 61 62 64 66 69 72 74 74 74 73 72 71 72 73 74 72 69 66 63 62 61 59 56 55 55 53 52 52 52 53 53 53 54 53
61 62 63 64 65 66 66 67 67 66 65 64 64 65 67 68 68 68 67 66 64 64 64 62 62 63 61 60 64 69 70 70 70 69 67 67 67 67 67 67 66 66 66 64 62 60 60 61 62 62 63 63 62 60 60 61 63 65 68 71 72 71 71 70 70 70 70 72 72 70 67 64 61 60 57 53 52 53 53 51 50 50 50 52 53 53 53 53
58 59 60 62 63 64 65 65 65 64 63 63 63 64 66 67 67 67 66 65 63 63 63 62 63 61 57 59 65 66 66 68 69 67 66 66 65 66 66 65 64 65 64 62 60 59 60 60 60 60 60 60 59 58 59 61 61 62 66 68 68 67 67 67 67 67 68 69 68 66 63 61 59 55 51 49 49 50 51 50 49 49 49 50 52 52 52 51
55 56 57 58 60 61 61 62 62 61 61 61 61 63 65 66 66 66 64 61 61 62 62 62 63 59 57 61 62 62 66 68 66 65 66 66 64 64 64 63 63 64 63 60 58 59 60 59 58 58 57 56 56 57 60 60 59 61 65 65 64 64 64 64 65 64 64 64 62 60 58 56 53 49 47 47 47 47 49 50 49 48 48 49 50 50 50 48
52 53 54 55 57 57 58 58 58 58 58 58 59 61 63 64 64 62 59 58 60 61 62 63 61 58 58 60 60 63 67 66 64 66 66 65 63 63 63 63 64 64 61 59 59 62 62 59 57 56 55 55 56 59 60 58 58 62 63 62 61 61 61 62 61 60 59 57 55 53 52 51 47 45 46 46 45 46 48 49 48 48 48 48 48 47 45 43
49 50 52 54 55 55 55 55 56 57 57 57 59 61 62 62 61 58 55 57 59 60 62 62 60 59 60 60 62 65 66 64 65 66 64 62 63 63 64 65 64 62 59 59 61 61 59 57 55 54 54 56 58 58 57 57 59 60 60 58 58 58 59 59 57 55 53 50 49 48 47 46 44 45 45 44 44 45 47 47 47 47 47 45 44 43 41 40
48 50 52 53 54 54 54 55 56 57 57 58 59 59 60 60 58 55 54 57 59 60 61 62 61 60 59 61 65 66 65 64 64 63 62 61 62 63 63 62 60 58 57 58 59 57 54 53 53 53 54 56 55 54 54 55 56 55 54 54 55 56 57 55 53 51 48 46 46 45 44 44 44 45 44 43 43 44 45 45 46 46 44 42 41 39 39 38
49 51 52 53 54 54 54 55 56 57 58 58 59 59 60 59 56 56 57 59 61 62 63 63 61 59 60 64 67 67 65 64 63 62 62 61 61 62 61 60 58 55 55 57 56 53 51 51 52 54 55 53 51 51 52 52 51 50 51 52 53 54 53 51 49 46 44 44 44 44 44 44 44 44 43 43 43 43 44 46 46 45 43 41 39 38 38 38
48 49 49 49 50 50 51 51 52 53 54 54 55 56 56 56 57 60 62 62 63 65 64 62 61 61 63 66 68 67 66 64 63 63 63 62 63 63 62 60 59 57 57 58 55 52 52 52 52 53 52 51 50 49 49 50 49 49 50 52 52 51 49 48 46 43 42 43 44 44 45 45 44 43 43 43 42 43 45 46 46 44 42 40 39 39 39 39
43 43 43 42 43 43 44 44 44 45 45 46 47 48 49 53 58 61 62 63 66 67 64 62 62 63 64 66 67 66 64 63 63 64 64 63 62 62 62 61 59 59 61 60 56 53 52 50 50 50 49 49 49 49 50 51 52 52 53 53 52 50 48 47 46 44 43 45 46 46 46 45 43 43 43 43 43 45 47 46 45 43 41 40 40 40 40 40
36 36 36 36 37 38 38 38 38 38 39 39 41 44 48 51 53 55 57 61 65 66 64 63 63 63 64 66 67 65 64 63 63 63 63 63 62 61 61 60 60 62 62 59 56 55 52 50 50 50 49 49 50 51 53 54 55 55 54 53 52 50 49 48 46 45 46 47 48 47 46 45 43 42 42 42 44 47 47 46 44 43 42 41 41 41 41 42
31 31 31 31 32 32 32 33 34 35 37 39 41 43 45 45 46 48 51 56 61 63 63 63 63 64 65 65 64 63 63 63 63 63 63 64 63 62 61 61 62 63 62 58 57 55 53 52 53 52 51 51 52 54 55 56 55 54 53 52 52 51 50 48 47 46 47 48 48 47 46 45 43 41 41 43 46 48 48 46 45 44 44 43 43 43 44 44
27 27 26 26 26 27 28 30 32 34 37 39 40 40 40 41 43 47 50 52 55 58 59 60 62 63 63 62 61 61 61 62 62 62 63 64 64 62 62 62 64 64 62 60 58 55 53 54 54 53 52 52 54 55 56 56 55 54 54 53 53 51 49 48 47 47 48 48 47 47 45 44 41 40 42 45 48 49 48 47 47 46 46 45 45 46 46 47
23 22 22 21 22 24 27 29 31 34 36 36 35 36 38 40 43 47 50 51 52 53 54 55 56 58 58 57 57 58 59 60 61 62 63 63 62 61 61 63 64 64 63 62 60 57 56 55 53 52 51 52 54 55 56 55 54 54 54 53 52 50 48 47 47 46 47 47 46 45 44 42 41 42 44 47 49 50 49 49 50 49 48 47 47 48 48 47
20 19 19 20 22 23 26 29 31 33 33 33 33 36 38 41 43 45 47 48 48 48 48 49 49 50 51 51 51 52 53 55 57 59 59 60 60 60 61 64 64 64 62 61 60 59 58 55 52 51 52 53 54 55 55 54 54 53 52 50 49 47 46 46 46 46 46 46 45 45 44 43 44 45 46 48 50 51 50 51 52 50 49 49 49 49 49 48
17 17 18 21 23 25 27 29 31 32 32 34 37 40 42 43 45 46 46 45 44 44 45 46 47 46 46 47 48 49 50 52 53 54 55 56 58 60 61 63 64 63 62 60 59 60 58 54 51 51 52 54 54 53 53 53 53 52 50 49 47 46 45 46 47 46 47 46 46 46 45 45 46 46 47 49 51 52 52 53 52 51 51 51 50 50 49 49
16 18 20 22 25 28 30 31 31 33 36 39 42 44 46 47 47 47 46 45 45 47 47 48 47 46 45 45 46 48 49 50 51 51 52 54 56 58 59 62 63 63 62 60 60 60 57 53 51 51 53 53 52 52 52 52 51 50 48 48 47 46 47 47 48 48 48 48 48 47 47 47 47 47 48 50 52 53 54 54 52 51 52 52 51 50 50 50
19 20 22 24 27 30 31 33 35 38 42 44 46 48 50 50 49 49 49 49 49 50 50 50 49 48 47 47 46 47 48 49 48 49 51 52 53 55 56 59 61 62 61 60 60 59 56 52 51 52 52 51 50 51 51 51 50 48 48 48 47 47 47 48 48 49 49 50 49 48 48 47 47 48 50 51 53 55 54 53 52 53 53 53 51 50 51 51
23 25 26 27 29 32 34 37 41 45 48 50 51 52 52 52 51 50 51 52 51 50 50 50 49 48 48 47 46 45 47 47 47 47 48 49 50 51 53 55 58 59 59 59 59 58 55 52 52 51 50 50 50 50 51 50 48 48 49 49 48 48 48 48 49 50 50 50 49 49 48 47 48 50 51 53 54 55 54 54 54 54 53 53 51 51 51 51
26 29 31 33 34 36 39 44 48 51 53 54 54 54 54 54 53 51 52 53 52 52 50 48 48 48 47 46 45 44 45 45 45 46 46 47 48 49 50 52 54 55 57 57 57 56 54 52 51 50 49 49 49 50 50 49 48 49 50 50 49 49 49 49 51 51 51 51 50 49 48 48 50 52 52 54 55 55 55 55 55 54 53 53 52 52 52 52
30 33 37 39 40 42 45 49 52 54 55 55 54 54 55 54 51 50 52 54 54 52 51 48 48 47 46 45 45 44 44 44 44 45 45 46 47 48 49 50 51 52 54 55 56 55 53 51 50 49 49 49 50 51 51 51 51 52 52 52 52 51 51 51 52 52 52 51 51 50 50 51 52 53 54 55 56 56 56 55 54 53 54 54 54 54 53 52
35 39 42 44 46 47 49 52 55 55 55 54 53 53 51 46 46 49 52 54 53 51 50 49 47 45 45 45 44 44 44 44 44 45 46 46 46 47 48 48 49 50 51 53 53 52 51 50 50 50 51 52 54 55 56 56 56 56 56 57 57 55 54 54 54 54 54 53 53 53 53 54 54 55 56 57 57 56 55 54 54 54 55 56 55 55 54 53
39 42 46 48 49 50 51 54 55 55 54 54 52 50 44 41 45 50 52 52 51 49 48 47 45 44 43 43 43 42 42 43 44 45 46 46 46 47 48 49 49 50 51 51 51 50 50 50 50 52 53 54 55 56 57 57 57 56 57 58 58 57 56 56 56 56 56 55 55 54 55 55 56 56 57 57 57 56 55 54 55 55 57 58 57 56 55 52
41 43 46 48 50 51 52 53 54 54 53 52 50 46 42 43 48 50 51 51 50 48 47 46 45 44 43 42 42 42 42 43 45 46 47 48 49 49 49 49 49 49 50 50 50 50 50 50 51 52 53 54 55 56 57 57 57 56 56 57 57 57 57 56 57 56 56 56 55 55 55 56 56 56 57 57 57 57 56 56 56 57 58 59 58 56 54 51
43 44 45 47 49 51 52 52 52 52 51 50 47 44 43 45 49 50 50 50 49 47 47 46 45 44 42 42 42 42 43 45 46 47 48 49 50 51 52 51 50 50 50 50 50 51 51 51 52 53 53 54 55 56 58 59 58 58 58 58 58 58 58 58 58 57 56 56 56 56 57 57 58 58 58 58 58 58 57 57 57 58 60 60 58 56 53 50
43 43 44 47 49 49 49 49 49 48 47 45 43 41 42 45 49 50 49 49 49 49 48 46 46 45 44 42 42 42 43 44 45 46 46 47 48 49 50 51 51 51 51 51 51 51 51 51 52 53 53 54 55 56 58 59 59 59 59 59 59 59 59 59 59 58 57 57 58 58 58 58 58 59 58 58 58 58 58 58 58 60 61 60 57 55 51 48
43 42 44 46 47 46 47 47 46 44 44 43 42 40 41 43 47 49 49 49 49 49 48 47 46 46 45 45 44 43 43 43 45 46 46 46 46 46 46 47 47 48 48 49 49 49 50 50 51 52 53 53 54 55 56 57 58 59 59 59 59 59 59 59 59 58 58 58 58 58 59 59 59 59 58 58 58 58 59 60 60 61 61 59 56 53 50 47
43 43 45 45 45 45 46 46 45 44 43 43 43 42 41 42 45 47 48 48 47 47 46 46 45 45 45 45 45 45 44 44 45 46 47 47 46 46 45 46 46 47 48 48 48 49 50 50 51 52 52 53 53 54 55 57 58 58 58 59 59 59 59 59 59 58 58 58 58 59 59 59 59 59 59 58 58 59 60 61 62 62 61 57 54 51 48 46
Wind_Direction
263 262 262 261 261 261 260 258 257 256 254 252 250 248 246 244 243 242 241 242 242 243 244 245 245 244 243 242 241 240 239 239 239 240 241 240 239 240 240 240 241 241 240 240 240 241 241 241 243 243 244 245 245 246 246 247 248 249 250 250 251 251 251 251 252 253 255 256 257 259 260 261 262 263 264 265 266 267 268 269 270 272 273 273 274 274 275 276
264 263 263 262 262 261 260 260 259 257 256 254 253 251 249 247 245 243 242 241 241 242 242 243 244 244 244 243 242 241 240 239 239 240 240 239 238 239 240 240 240 240 240 241 241 241 241 242 243 244 245 245 246 246 247 247 248 249 250 251 251 251 251 252 253 254 255 256 257 258 260 261 261 262 263 264 265 266 267 268 270 271 272 273 274 274 275 275
264 264 263 263 263 262 261 260 259 258 257 256 254 253 251 249 247 245 243 242 241 241 241 242 243 243 243 243 243 242 241 240 239 240 240 238 238 239 239 240 240 240 240 241 241 241 241 242 243 244 244 245 246 246 247 248 248 249 250 250 251 251 252 253 253 254 255 256 257 258 259 260 261 262 263 264 265 266 267 268 269 270 272 273 273 274 275 275
264 264 263 263 262 262 261 260 259 259 258 257 256 254 253 251 249 248 246 244 242 241 241 241 241 242 242 243 243 242 242 241 240 241 240 238 238 238 239 240 240 240 240 241 241 241 241 242 242 243 244 245 246 246 247 247 248 249 249 250 251 252 253 253 254 255 256 256 257 258 258 259 260 261 262 263 264 265 267 268 270 271 272 272 273 274 275 275
264 263 262 261 260 260 259 259 259 258 258 257 257 255 254 252 251 249 248 246 244 243 242 241 240 240 241 241 242 242 242 241 241 242 240 238 238 238 239 240 239 240 240 241 242 242 242 242 242 243 244 245 245 246 247 247 248 249 250 251 252 253 253 254 255 255 256 257 257 258 258 259 260 260 261 262 264 265 266 268 270 272 272 273 274 275 275 275
262 261 260 258 258 258 258 258 258 258 258 257 257 256 255 254 252 250 249 247 246 245 243 242 240 240 240 240 241 241 241 242 242 242 241 239 238 238 239 239 239 239 240 240 242 242 242 242 242 243 243 244 245 246 246 247 248 250 251 251 252 253 253 254 254 255 256 257 257 258 258 259 259 260 261 261 263 265 267 269 270 271 272 273 274 274 274 275
259 258 257 256 256 256 257 257 258 258 258 258 257 256 256 255 253 252 250 248 247 246 245 243 241 240 239 239 240 240 241 241 241 242 242 240 239 239 239 239 239 239 239 240 241 242 242 242 243 243 243 244 245 246 246 247 248 250 251 251 252 253 254 254 255 255 256 257 257 257 258 258 259 259 260 261 263 266 267 269 270 271 272 273 273 273 274 274
256 256 256 256 256 256 257 258 258 258 259 258 258 257 256 255 254 253 251 250 248 247 245 244 243 241 239 239 239 240 240 241 240 241 242 241 240 239 239 239 239 239 239 239 240 241 242 243 243 244 244 244 245 246 246 247 249 250 251 251 252 253 254 255 255 256 256 256 256 256 257 258 258 259 260 262 265 266 267 269 270 271 271 272 272 273 274 274
255 255 256 256 257 258 259 260 261 261 260 260 259 258 256 255 254 253 252 251 249 247 246 245 244 242 240 239 239 239 241 241 240 240 241 241 240 240 239 239 239 239 239 239 239 240 241 242 243 243 244 244 245 246 247 248 249 250 250 251 252 254 254 255 255 255 255 256 256 256 257 257 258 259 261 264 266 267 267 269 270 271 271 271 272 273 273 273
255 256 256 257 258 260 261 262 263 263 263 262 261 260 258 256 254 253 252 251 250 248 247 245 244 243 242 240 239 240 241 241 239 239 240 240 240 240 239 239 240 239 239 239 239 239 240 240 241 242 243 244 245 246 247 248 249 250 251 251 253 253 254 254 254 255 255 256 256 256 257 257 258 260 263 265 266 267 268 269 270 270 271 271 272 273 273 274
257 257 257 258 259 260 261 262 263 263 263 263 263 262 260 258 256 253 251 251 250 249 247 246 244 243 242 241 240 241 241 240 239 239 239 239 240 240 240 239 239 239 239 239 238 238 239 239 240 241 242 243 244 245 246 247 249 250 251 251 252 253 253 254 254 255 255 256 256 256 257 258 259 262 264 265 266 267 268 268 269 270 271 271 272 272 273 274
258 258 258 258 259 260 261 261 262 262 262 262 262 262 261 259 257 255 252 250 249 249 248 246 244 243 242 242 241 241 241 240 239 239 239 239 239 239 239 239 238 238 238 238 238 238 238 238 239 240 241 242 244 245 245 247 248 250 251 251 252 252 253 254 254 254 254 255 256 256 257 259 261 263 264 265 266 267 268 269 269 270 271 271 272 272 273 274
258 258 257 258 258 259 260 261 261 261 261 261 261 261 260 259 257 256 254 251 248 248 247 246 244 243 242 241 242 241 240 240 239 239 239 238 238 238 238 237 237 237 237 237 237 238 238 238 238 239 240 241 243 244 245 246 248 249 250 250 251 251 252 252 253 253 253 254 255 257 259 260 262 263 264 265 266 267 269 270 270 271 271 272 272 273 274 275
258 258 257 257 258 259 259 260 261 261 261 260 260 260 259 258 256 255 254 251 249 247 246 245 243 242 241 241 241 241 240 240 239 239 239 238 237 237 237 237 237 237 237 237 238 238 238 238 238 239 240 240 242 243 243 245 246 247 248 248 249 250 250 251 251 251 252 253 255 258 260 262 263 263 264 265 266 268 269 270 270 271 272 273 274 275 276 277
257 256 257 257 257 258 258 259 260 260 260 260 259 259 258 257 256 254 253 251 249 247 245 244 242 241 239 239 241 240 239 239 239 238 238 238 237 237 237 237 237 237 238 238 238 238 239 239 239 239 239 239 240 241 242 243 245 246 247 247 248 248 249 249 249 250 251 254 257 259 261 262 263 264 264 265 266 267 268 269 270 272 273 275 276 277 278 279
256 255 255 255 256 256 257 257 258 258 258 258 258 258 257 256 255 253 252 250 249 247 245 242 241 239 238 238 240 239 238 239 238 237 237 238 238 237 237 237 237 237 237 238 239 239 239 239 239 239 239 239 239 240 240 241 243 244 245 246 247 247 248 248 249 250 252 254 257 259 261 262 263 263 263 264 265 266 267 269 271 274 275 277 278 279 279 280
256 255 255 254 255 255 255 256 256 257 257 257 256 256 256 255 254 252 250 249 248 246 244 241 239 238 237 238 239 238 237 237 238 237 237 237 237 238 238 238 237 236 236 237 238 238 239 239 239 239 239 239 239 239 239 240 242 243 244 245 246 246 246 247 249 250 252 254 256 258 260 261 260 261 262 263 265 267 269 271 273 275 277 278 279 279 279 279
256 255 255 254 254 254 254 255 255 255 255 255 255 255 255 254 253 251 249 248 247 246 243 240 238 236 236 236 236 236 236 236 237 237 236 237 237 237 238 238 237 237 236 236 236 237 238 238 238 238 238 239 239 239 239 239 240 241 242 243 244 244 245 247 248 250 252 254 255 257 258 258 259 260 262 265 267 269 271 274 275 276 277 278 279 279 278 277
257 256 255 255 254 254 254 254 254 254 254 254 253 253 253 252 252 250 248 248 247 246 243 239 236 235 234 235 235 235 235 236 236 236 236 236 236 236 237 238 238 237 236 235 235 235 236 237 237 237 238 238 238 237 237 237 238 240 241 241 242 243 245 247 248 250 252 253 254 255 256 257 259 262 264 266 269 271 273 275 276 277 278 278 277 276 275 276
258 257 256 255 254 254 254 254 254 253 253 252 252 251 251 251 251 250 249 248 246 245 242 239 236 234 234 234 235 234 234 235 235 235 235 235 235 235 236 237 238 238 237 234 233 233 233 235 236 236 236 236 236 236 236 236 237 238 240 241 242 244 245 247 248 250 251 251 252 254 256 258 261 263 265 268 270 273 275 277 278 278 277 275 273 273 274 276
258 257 256 255 254 254 253 253 253 252 252 251 250 250 249 250 250 249 248 247 245 243 241 239 236 234 233 233 234 234 234 234 235 235 235 235 235 235 236 237 238 238 237 234 232 231 231 233 234 235 235 236 236 236 235 235 236 237 239 240 242 244 245 246 248 249 250 251 252 254 256 258 261 263 266 268 271 274 276 276 276 274 272 272 273 274 275 276
259 257 256 255 254 254 253 252 252 251 250 249 249 248 248 248 248 247 246 245 243 241 239 238 235 233 232 232 232 232 232 233 233 233 234 234 235 235 236 237 237 237 237 234 231 230 229 230 232 234 234 235 235 235 235 235 236 237 239 241 242 243 244 245 247 248 249 251 252 254 256 259 261 264 267 270 273 274 274 273 271 270 270 271 272 273 274 275
258 257 256 255 254 253 252 252 251 250 249 248 247 247 247 246 246 245 244 243 242 241 239 237 235 233 232 231 231 231 231 232 232 232 232 233 234 234 235 236 236 236 236 233 230 228 227 228 230 232 233 234 234 234 235 236 237 238 239 240 242 243 244 245 246 247 248 251 253 254 257 260 262 265 268 271 272 271 270 269 267 267 268 269 270 272 273 276
258 257 256 254 254 253 252 252 251 249 248 247 246 246 245 244 243 243 242 241 241 239 238 237 235 234 232 231 230 231 231 232 232 232 232 233 234 234 234 234 234 234 234 232 229 226 225 226 227 229 230 232 233 234 235 236 236 237 238 239 241 242 243 244 244 245 247 250 253 255 258 260 263 266 268 269 269 267 265 264 264 266 267 269 270 273 275 277
258 257 255 254 253 253 252 251 250 249 248 247 245 244 243 242 242 241 240 240 239 238 237 237 235 234 233 231 230 230 231 231 232 232 232 232 233 233 232 232 232 232 232 231 228 226 224 225 226 228 229 230 232 233 234 234 235 235 236 237 239 241 242 243 244 245 247 250 253 256 258 261 264 265 266 265 264 262 260 260 262 265 268 271 273 275 277 279
258 257 255 254 253 253 252 251 250 249 248 246 244 243 241 241 240 240 239 238 237 236 236 235 235 234 232 231 230 229 230 230 230 230 230 230 230 230 230 230 230 230 230 230 228 225 224 224 226 227 229 230 232 232 232 233 233 234 235 237 239 241 242 243 244 245 247 250 253 256 259 261 262 262 262 261 258 257 257 259 262 265 268 272 275 277 279 280
256 255 254 253 253 252 251 251 250 249 247 245 244 242 241 240 239 238 237 236 235 235 234 233 234 233 230 228 228 228 228 228 228 228 227 227 226 227 228 228 228 229 230 229 227 226 225 225 226 227 229 230 231 231 231 232 233 233 235 237 239 240 241 242 243 244 247 250 253 256 259 259 258 258 257 254 253 256 259 261 263 266 269 273 276 278 280 281
256 255 254 254 253 252 251 251 250 248 247 245 243 242 241 240 238 237 236 235 234 233 233 232 232 230 227 227 227 226 225 225 224 224 223 223 222 224 225 225 226 227 228 227 225 225 225 225 225 226 226 228 228 228 229 230 231 232 234 235 237 238 240 241 243 244 247 250 253 255 255 254 254 252 250 249 252 257 261 264 266 269 271 273 276 278 280 281
259 258 257 256 255 253 252 251 250 248 246 244 242 241 239 238 237 235 234 233 232 231 231 231 230 227 225 225 224 223 223 223 222 221 221 221 220 221 222 223 223 225 226 226 224 224 224 223 224 224 224 224 225 226 227 228 229 230 233 234 235 236 238 240 241 243 246 248 250 250 250 250 249 247 246 248 253 258 262 266 270 271 273 275 277 279 280 281
262 260 259 257 255 253 252 250 249 247 244 242 240 239 238 237 235 233 231 231 231 229 229 229 227 225 223 223 222 222 222 221 221 221 222 221 220 220 220 222 223 224 224 225 226 226 225 224 224 224 223 223 224 225 227 227 228 230 233 234 234 234 236 238 239 241 243 244 244 244 244 246 245 243 245 249 253 258 263 268 271 273 275 277 280 280 280 280
263 261 259 257 255 253 251 250 248 246 244 241 240 238 237 236 234 231 230 230 229 228 227 227 224 222 221 221 222 221 221 220 220 221 221 221 221 222 222 224 225 226 225 225 226 227 227 227 226 223 222 223 224 225 225 227 229 232 233 233 233 233 234 236 237 238 239 239 238 239 240 241 242 243 247 250 253 258 264 268 270 272 275 278 281 282 281 280
263 261 259 257 255 253 251 249 246 245 243 241 239 238 237 235 232 230 228 227 227 226 224 223 221 220 219 220 221 221 220 219 219 220 220 219 220 221 223 224 224 225 226 227 227 227 227 227 225 222 221 221 221 221 223 226 228 230 230 232 232 232 233 234 235 235 235 234 235 236 237 237 240 244 248 251 255 260 264 266 268 270 274 278 280 281 280 278
264 261 258 256 253 251 248 246 243 242 240 239 237 236 235 233 231 229 226 225 226 225 222 221 219 217 217 219 220 220 219 218 218 218 219 218 218 218 220 222 222 221 222 225 226 225 225 223 222 220 219 218 217 218 221 223 225 226 227 229 230 231 232 232 232 231 230 231 232 233 234 235 239 244 249 253 257 260 262 263 266 268 272 277 279 280 279 277
262 259 256 252 249 246 243 241 239 237 236 234 232 231 229 227 225 224 222 221 223 224 221 219 218 216 217 218 220 220 219 219 219 218 218 218 218 218 219 220 221 219 219 220 221 220 219 218 217 217 215 214 214 215 218 220 220 221 223 225 227 227 228 228 227 225 225 227 229 230 232 235 238 244 249 254 258 261 262 263 265 268 271 275 277 278 278 277
259 255 251 247 244 241 239 236 233 230 228 226 223 221 220 220 219 218 218 218 220 221 219 218 217 217 217 218 219 219 218 218 219 219 218 217 216 216 217 217 218 218 219 219 219 217 214 211 210 210 210 211 212 214 216 218 218 219 220 222 223 224 224 224 223 223 224 226 228 229 231 235 239 244 251 256 260 262 263 264 265 267 270 272 274 276 277 276
256 251 247 243 239 236 233 229 224 221 218 215 214 213 213 213 212 211 212 214 216 217 217 216 216 217 217 218 219 220 219 218 218 218 218 216 214 213 213 213 214 215 216 216 216 215 212 207 206 206 207 210 211 213 216 217 218 218 219 220 222 222 222 223 222 223 225 226 228 230 233 237 241 246 252 257 260 262 263 264 265 266 267 270 272 274 276 277
251 245 240 235 231 226 221 217 214 212 210 209 209 207 205 203 202 202 203 206 210 212 213 213 214 216 217 218 219 220 220 220 218 217 216 215 213 211 211 211 212 213 213 212 211 211 210 207 206 206 208 210 211 213 216 217 217 217 217 218 220 221 222 223 224 225 227 228 230 233 236 240 244 248 253 256 259 262 264 265 266 265 265 268 271 273 276 278
243 236 229 222 216 212 209 206 204 203 204 204 202 198 196 195 195 197 198 199 202 206 208 209 211 213 214 214 215 217 218 218 217 216 215 214 211 209 208 209 210 211 211 211 209 207 208 208 206 208 211 212 212 213 215 217 217 217 217 217 219 221 223 226 227 228 229 230 231 234 238 241 245 248 252 255 259 261 263 265 265 264 265 268 271 274 278 281
231 222 213 206 201 198 197 196 196 196 195 191 188 187 186 187 188 191 192 194 196 199 200 201 203 205 206 205 206 208 208 209 210 210 211 211 208 206 205 206 208 208 209 209 208 208 209 208 207 210 212 212 213 215 216 217 217 218 218 219 221 222 224 228 231 231 232 233 234 236 239 242 245 248 252 256 259 261 263 264 264 265 266 269 272 276 280 283
214 204 197 193 190 187 187 188 189 186 181 177 177 177 177 179 181 183 184 186 187 187 188 189 190 191 193 194 194 195 196 197 199 200 201 203 203 202 203 204 205 206 206 207 207 209 210 209 209 211 212 213 214 215 217 218 218 217 218 220 221 223 225 229 232 233 234 235 236 238 241 243 246 250 253 256 259 261 263 263 264 265 267 270 274 279 282 285
194 188 185 184 182 180 180 180 178 173 169 170 171 171 172 174 177 177 176 175 175 175 177 178 179 178 179 181 184 185 186 187 188 189 192 194 196 198 200 202 204 205 205 206 207 209 210 210 211 212 213 214 215 216 217 218 218 218 219 221 222 223 226 229 231 233 235 237 238 239 241 244 247 250 253 256 259 261 262 263 264 266 268 272 276 280 284 286
177 175 176 177 177 176 175 171 166 163 163 165 166 168 169 170 173 174 170 168 169 170 171 172 171 170 169 171 176 179 178 179 181 184 187 190 192 195 198 201 203 204 205 206 207 210 211 212 212 213 214 215 216 218 218 217 218 220 221 222 223 225 227 229 231 234 236 238 240 242 244 246 249 252 253 256 259 261 262 264 265 266 269 273 277 282 285 287
171 167 167 169 170 169 166 162 159 159 160 163 165 167 167 169 171 171 167 165 165 165 167 167 166 165 166 167 170 173 174 176 178 182 185 187 190 193 197 200 203 204 205 207 208 210 211 211 211 213 215 215 217 218 218 217 219 221 223 224 225 227 229 230 232 234 237 239 242 244 247 249 251 253 254 257 259 262 263 264 265 267 271 275 279 283 286 286
168 163 161 162 164 162 159 156 157 159 161 164 166 166 166 170 172 169 164 161 161 162 163 164 163 163 164 165 166 170 173 175 178 182 185 187 190 193 197 199 201 204 206 208 209 210 210 210 210 213 215 215 216 218 219 219 220 222 224 226 227 229 230 232 234 236 238 241 243 246 248 249 251 253 255 257 259 261 263 264 266 270 273 276 280 283 285 285
163 160 158 159 159 159 157 157 158 161 163 166 167 167 169 173 172 165 159 158 159 160 161 162 163 164 164 164 166 170 173 176 180 183 186 190 193 196 198 200 201 202 204 206 207 208 209 209 210 212 214 215 216 217 218 219 220 221 224 227 229 230 231 234 237 238 240 242 244 246 247 249 250 253 255 257 260 262 264 266 268 271 273 276 280 283 284 284
161 159 158 158 158 158 158 159 160 163 165 166 167 170 173 172 164 158 156 157 159 160 161 162 164 165 166 167 169 171 175 178 181 185 188 192 195 198 201 202 202 203 205 206 207 209 209 209 210 211 213 215 216 216 218 219 219 219 221 225 228 230 231 233 236 239 240 241 243 245 247 249 251 254 256 258 261 263 265 266 268 270 273 276 281 283 284 284
162 160 160 159 159 159 160 161 162 164 166 167 169 172 172 164 157 156 157 157 158 160 162 163 164 166 169 170 171 174 177 181 184 187 190 192 196 199 202 204 204 205 206 208 209 210 210 210 210 213 215 217 218 219 220 221 222 222 223 226 229 231 232 234 236 239 241 242 244 246 249 251 253 255 258 260 262 264 264 265 267 269 273 278 281 283 283 283
162 163 162 161 160 161 162 163 164 166 167 168 170 171 166 159 157 157 157 158 160 162 164 165 167 169 171 172 174 177 181 185 188 190 192 194 196 198 201 203 205 206 208 209 210 211 212 211 212 214 216 219 221 222 223 224 225 226 228 230 233 235 236 238 239 241 244 246 248 250 252 253 255 257 259 260 261 262 263 264 266 270 275 279 282 283 283 282
163 164 163 162 162 163 164 165 166 166 168 170 171 168 163 160 159 158 159 161 163 164 166 168 170 171 173 175 178 181 185 188 191 193 195 197 199 200 200 201 203 205 207 209 210 212 212 212 214 217 218 220 222 224 225 225 226 227 229 231 234 236 239 240 242 243 245 247 249 251 252 254 256 257 258 259 260 261 263 265 268 272 276 279 281 282 281 280
164 165 164 163 164 164 164 165 166 167 167 169 170 167 163 162 161 161 163 165 166 168 169 171 173 174 175 178 182 186 189 191 193 195 197 200 203 204 204 204 204 206 207 209 211 212 213 214 215 218 220 222 224 226 227 228 228 229 231 233 234 237 239 241 243 244 246 248 250 252 253 254 256 257 258 259 261 262 263 266 270 273 276 279 280 280 279 278
164 164 164 165 165 164 164 165 166 167 167 168 168 167 165 165 166 167 168 169 170 172 173 175 177 178 179 181 184 188 191 193 196 197 198 201 203 206 208 209 209 210 212 213 214 215 216 217 218 220 222 223 225 228 230 231 231 232 233 235 236 238 240 242 243 245 247 249 251 253 254 254 256 257 258 259 260 262 264 268 272 275 277 278 278 277 277 276
164 164 165 166 165 164 165 166 167 168 169 169 170 170 169 170 171 172 173 173 174 175 177 179 181 183 184 186 188 189 192 195 198 200 200 202 204 205 207 209 211 212 213 215 216 217 219 220 221 223 224 226 227 229 231 233 234 234 235 236 237 238 240 243 245 247 249 251 252 253 254 255 256 257 258 258 259 262 266 270 273 275 276 276 275 275 275 274
Height
10600 10601 10602 10602 10603 10605 10606 10607 10608 10610 10611 10613 10614 10616 10618 10620 10623 10625 10627 10629 10632 10634 10636 10638 10640 10644 10648 10653 10656 10659 10664 10669 10673 10677 10674 10674 10686 10694 10698 10701 10702 10705 10709 10713 10717 10720 10725 10728 10730 10733 10736 10738 10741 10745 10748 10751 10754 10754 10755 10755 10756 10761 10769 10774 10777 10779 10781 10783 10784 10785 10786 10787 10787 10787 10787 10786 10786 10787 10789 10791 10792 10793 10794 10795 10797 10799 10801 10802
10592 10593 10594 10594 10596 10597 10598 10599 10600 10602 10604 10605 10607 10609 10611 10613 10615 10618 10620 10622 10625 10627 10629 10631 10633 10637 10641 10646 10648 10652 10657 10661 10666 10666 10661 10669 10683 10687 10688 10691 10693 10697 10702 10706 10710 10714 10719 10723 10725 10727 10731 10733 10735 10739 10743 10746 10748 10747 10747 10748 10750 10756 10764 10768 10771 10774 10776 10778 10779 10780 10781 10781 10781 10781 10781 10781 10781 10782 10784 10786 10787 10789 10791 10792 10792 10793 10795 10796
10584 10585 10586 10586 10587 10588 10590 10591 10592 10594 10595 10597 10599 10601 10603 10606 10608 10610 10613 10615 10617 10619 10622 10624 10626 10630 10634 10638 10641 10645 10650 10654 10658 10653 10652 10667 10676 10677 10679 10681 10685 10690 10695 10700 10704 10708 10712 10716 10719 10721 10724 10726 10728 10733 10737 10740 10740 10740 10740 10741 10743 10751 10759 10763 10766 10769 10770 10773 10774 10775 10775 10775 10776 10776 10775 10775 10776 10777 10779 10781 10782 10785 10787 10788 10787 10788 10789 10790
10575 10576 10577 10578 10579 10580 10581 10582 10584 10585 10586 10589 10590 10593 10595 10598 10600 10603 10605 10607 10609 10612 10614 10616 10619 10623 10627 10631 10634 10638 10642 10647 10648 10643 10648 10662 10666 10668 10671 10672 10678 10683 10689 10693 10696 10701 10705 10710 10713 10715 10717 10719 10722 10727 10731 10732 10733 10733 10733 10733 10739 10749 10756 10758 10760 10763 10765 10767 10768 10769 10769 10769 10770 10770 10770 10770 10770 10772 10774 10775 10777 10780 10783 10783 10782 10783 10783 10783
10566 10567 10568 10569 10570 10571 10572 10574 10575 10577 10578 10580 10582 10584 10586 10589 10592 10595 10598 10600 10602 10604 10606 10609 10612 10616 10621 10624 10627 10631 10635 10639 10639 10636 10644 10653 10656 10660 10662 10665 10671 10676 10683 10686 10688 10694 10699 10703 10705 10708 10710 10712 10716 10721 10723 10724 10726 10726 10725 10730 10738 10746 10750 10752 10755 10757 10759 10761 10762 10763 10763 10764 10765 10765 10765 10764 10766 10768 10769 10771 10773 10775 10776 10777 10778 10778 10777 10777
10558 10559 10560 10561 10562 10563 10565 10566 10567 10568 10570 10571 10573 10575 10578 10581 10583 10586 10589 10591 10594 10596 10598 10601 10604 10609 10613 10616 10620 10624 10628 10631 10630 10630 10636 10644 10648 10652 10654 10658 10664 10669 10675 10678 10681 10686 10691 10695 10697 10700 10703 10706 10710 10713 10715 10718 10721 10720 10721 10729 10735 10739 10743 10746 10749 10752 10754 10755 10756 10757 10757 10757 10758 10759 10759 10759 10761 10764 10766 10768 10769 10770 10770 10771 10772 10772 10772 10772
10549 10550 10551 10553 10554 10555 10556 10558 10559 10560 10562 10563 10565 10567 10569 10572 10574 10577 10580 10583 10586 10588 10590 10593 10597 10602 10605 10610 10613 10617 10622 10622 10620 10624 10630 10637 10641 10644 10647 10651 10656 10661 10666 10670 10674 10678 10683 10687 10689 10693 10696 10700 10704 10705 10709 10713 10715 10715 10718 10725 10729 10733 10737 10740 10744 10746 10748 10749 10750 10750 10750 10750 10752 10753 10752 10754 10758 10761 10762 10763 10764 10765 10765 10765 10765 10766 10766 10766
10540 10542 10543 10545 10546 10547 10548 10550 10551 10552 10553 10555 10557 10559 10561 10563 10565 10568 10571 10574 10576 10579 10582 10584 10589 10594 10598 10603 10606 10612 10615 10609 10612 10620 10624 10628 10632 10637 10640 10642 10648 10652 10656 10662 10667 10671 10676 10679 10682 10686 10689 10694 10697 10698 10703 10709 10710 10710 10713 10719 10724 10729 10731 10734 10738 10740 10741 10742 10743 10743 10743 10744 10746 10746 10746 10751 10756 10757 10757 10758 10759 10759 10760 10759 10759 10761 10761 10759
10532 10533 10535 10536 10537 10538 10540 10541 10542 10544 10545 10546 10548 10550 10552 10554 10557 10559 10562 10564 10567 10570 10573 10576 10582 10586 10591 10596 10600 10606 10604 10598 10608 10616 10615 10619 10624 10629 10633 10635 10639 10644 10648 10654 10659 10664 10668 10670 10673 10677 10681 10686 10690 10693 10699 10704 10704 10703 10707 10714 10720 10724 10725 10728 10731 10732 10734 10735 10736 10736 10737 10738 10739 10740 10744 10750 10752 10751 10752 10753 10753 10753 10754 10754 10754 10756 10754 10753
10523 10524 10526 10527 10529 10530 10531 10532 10534 10535 10536 10537 10539 10541 10543 10545 10547 10550 10553 10555 10558 10561 10563 10568 10573 10577 10584 10588 10594 10598 10591 10591 10603 10608 10607 10612 10617 10621 10625 10628 10631 10636 10641 10646 10651 10655 10656 10659 10665 10670 10675 10681 10685 10688 10694 10699 10696 10696 10703 10711 10715 10717 10718 10721 10723 10726 10727 10728 10729 10730 10731 10732 10733 10737 10743 10746 10745 10744 10746 10747 10747 10746 10747 10748 10749 10750 10748 10748
10514 10516 10517 10518 10520 10521 10522 10523 10525 10526 10527 10529 10530 10532 10533 10535 10538 10541 10544 10546 10549 10551 10555 10559 10563 10570 10575 10580 10588 10586 10579 10586 10597 10599 10601 10606 10610 10613 10617 10621 10624 10628 10633 10637 10641 10643 10646 10652 10659 10665 10670 10675 10679 10682 10688 10692 10689 10691 10699 10706 10708 10709 10712 10715 10717 10719 10720 10721 10722 10723 10724 10725 10730 10736 10740 10740 10739 10738 10740 10741 10741 10741 10741 10742 10744 10744 10742 10743
10505 10506 10507 10509 10510 10511 10513 10514 10516 10517 10518 10520 10521 10522 10524 10526 10528 10532 10535 10537 10539 10542 10546 10550 10556 10562 10566 10574 10579 10571 10571 10582 10589 10592 10595 10599 10602 10605 10608 10612 10614 10618 10623 10627 10629 10633 10639 10646 10652 10658 10663 10668 10672 10676 10683 10685 10684 10688 10694 10699 10701 10703 10706 10709 10711 10713 10713 10714 10715 10717 10718 10721 10729 10734 10734 10733 10733 10732 10733 10734 10735 10735 10735 10736 10738 10737 10737 10738
10495 10496 10498 10499 10500 10502 10503 10504 10506 10507 10509 10511 10512 10513 10515 10516 10519 10523 10525 10527 10529 10533 10537 10541 10548 10552 10559 10567 10563 10559 10567 10576 10581 10585 10587 10590 10593 10595 10598 10602 10605 10610 10614 10617 10620 10626 10633 10639 10645 10650 10656 10663 10666 10670 10677 10680 10680 10683 10688 10692 10694 10697 10700 10703 10705 10705 10706 10707 10708 10712 10714 10718 10726 10729 10727 10727 10726 10726 10727 10728 10728 10728 10728 10730 10731 10731 10732 10733
10484 10486 10487 10489 10490 10491 10493 10494 10496 10497 10499 10501 10502 10503 10505 10507 10511 10513 10515 10517 10520 10524 10528 10533 10539 10543 10552 10556 10549 10553 10564 10568 10573 10575 10576 10580 10583 10586 10589 10593 10598 10603 10607 10610 10615 10621 10627 10633 10639 10645 10651 10656 10659 10665 10671 10673 10674 10676 10681 10685 10688 10692 10694 10696 10698 10697 10699 10701 10704 10708 10709 10715 10722 10722 10721 10721 10720 10721 10722 10721 10721 10721 10723 10723 10724 10725 10727 10728
10472 10474 10476 10478 10479 10480 10482 10484 10485 10487 10489 10491 10492 10493 10495 10499 10502 10504 10505 10508 10511 10515 10519 10524 10529 10535 10543 10543 10539 10547 10557 10560 10562 10562 10566 10572 10575 10578 10582 10586 10592 10598 10601 10605 10610 10617 10622 10629 10634 10639 10644 10648 10652 10658 10663 10666 10667 10670 10674 10678 10682 10686 10687 10688 10689 10690 10693 10697 10702 10703 10704 10710 10716 10716 10715 10714 10715 10715 10715 10715 10715 10716 10717 10717 10718 10720 10721 10721
10460 10462 10464 10466 10467 10469 10471 10473 10475 10477 10478 10480 10481 10483 10486 10490 10492 10494 10497 10499 10503 10506 10511 10516 10520 10527 10533 10531 10532 10542 10549 10549 10548 10552 10560 10564 10567 10572 10575 10581 10587 10591 10595 10599 10605 10612 10618 10624 10629 10633 10637 10640 10645 10651 10655 10659 10661 10663 10667 10671 10676 10679 10679 10679 10681 10685 10690 10694 10698 10698 10698 10705 10708 10708 10708 10708 10709 10709 10709 10710 10710 10712 10712 10712 10713 10714 10714 10713
10448 10450 10452 10454 10455 10458 10460 10462 10464 10466 10468 10470 10471 10473 10477 10481 10482 10485 10488 10491 10494 10498 10502 10507 10511 10518 10522 10522 10525 10533 10538 10537 10538 10547 10553 10554 10560 10566 10570 10575 10579 10583 10588 10593 10600 10607 10613 10619 10623 10626 10629 10633 10638 10643 10648 10653 10654 10657 10661 10665 10669 10669 10669 10671 10675 10682 10687 10691 10694 10692 10693 10697 10698 10700 10702 10703 10704 10704 10705 10706 10707 10707 10706 10706 10707 10708 10708 10707
10435 10437 10440 10442 10444 10446 10448 10451 10453 10455 10458 10459 10461 10464 10468 10470 10473 10477 10481 10483 10486 10490 10495 10498 10503 10509 10512 10512 10516 10522 10527 10528 10533 10541 10543 10547 10555 10560 10564 10568 10572 10577 10582 10589 10596 10602 10608 10613 10616 10619 10622 10626 10631 10636 10642 10645 10647 10649 10653 10657 10657 10657 10660 10665 10672 10678 10684 10687 10687 10685 10685 10687 10689 10694 10699 10700 10700 10700 10701 10701 10701 10701 10701 10701 10701 10701 10701 10700
10423 10425 10427 10430 10432 10434 10437 10440 10442 10444 10447 10448 10451 10454 10458 10460 10464 10469 10473 10476 10480 10483 10485 10489 10493 10498 10501 10502 10507 10515 10520 10522 10527 10533 10536 10541 10548 10553 10556 10560 10565 10570 10576 10584 10591 10597 10602 10605 10608 10613 10616 10620 10623 10628 10632 10635 10638 10640 10643 10646 10647 10649 10655 10662 10668 10675 10680 10681 10679 10676 10676 10679 10685 10692 10696 10696 10696 10695 10695 10695 10695 10695 10695 10696 10695 10695 10694 10695
10411 10413 10415 10417 10420 10422 10425 10428 10430 10433 10435 10438 10441 10444 10448 10452 10457 10462 10467 10470 10472 10473 10476 10480 10484 10488 10491 10495 10501 10508 10511 10514 10520 10526 10529 10534 10540 10545 10549 10553 10559 10564 10570 10577 10584 10590 10594 10598 10602 10606 10609 10611 10614 10618 10622 10627 10630 10632 10634 10638 10640 10644 10652 10658 10664 10671 10674 10672 10668 10668 10670 10676 10684 10690 10691 10691 10691 10690 10689 10689 10689 10688 10688 10688 10689 10689 10690 10692
10399 10401 10403 10405 10408 10410 10413 10415 10418 10421 10424 10427 10430 10434 10439 10445 10450 10455 10458 10460 10460 10463 10468 10471 10474 10479 10483 10488 10493 10499 10504 10509 10514 10518 10522 10528 10533 10538 10543 10548 10554 10558 10563 10570 10576 10582 10588 10593 10596 10598 10600 10603 10606 10609 10614 10619 10623 10624 10627 10631 10635 10640 10647 10654 10659 10665 10666 10661 10659 10661 10666 10674 10682 10686 10686 10686 10685 10684 10683 10683 10682 10681 10681 10681 10683 10685 10686 10688
10388 10390 10392 10394 10396 10398 10401 10403 10406 10409 10412 10416 10419 10424 10432 10439 10442 10444 10447 10448 10450 10454 10458 10462 10467 10470 10473 10478 10484 10491 10497 10501 10505 10509 10515 10521 10526 10531 10536 10542 10547 10551 10555 10562 10569 10576 10582 10586 10588 10590 10593 10596 10598 10602 10608 10613 10617 10619 10622 10626 10630 10635 10641 10648 10653 10659 10657 10652 10652 10656 10663 10672 10679 10681 10680 10680 10679 10678 10677 10676 10675 10675 10676 10677 10679 10680 10681 10683
10376 10379 10381 10383 10385 10387 10389 10391 10395 10398 10400 10404 10409 10417 10426 10430 10430 10433 10436 10438 10440 10445 10450 10454 10458 10459 10464 10470 10477 10484 10489 10491 10496 10502 10509 10515 10520 10524 10529 10535 10539 10543 10549 10556 10562 10568 10574 10578 10580 10583 10586 10587 10590 10596 10603 10608 10612 10616 10618 10622 10624 10628 10635 10641 10648 10652 10649 10644 10644 10652 10661 10670 10675 10675 10674 10674 10673 10672 10671 10670 10669 10670 10672 10674 10674 10675 10676 10678
10366 10368 10370 10372 10374 10376 10378 10381 10384 10386 10388 10394 10402 10410 10416 10417 10418 10422 10425 10428 10432 10437 10441 10445 10449 10453 10458 10463 10471 10479 10481 10483 10490 10497 10504 10510 10513 10517 10523 10528 10532 10537 10543 10548 10553 10560 10566 10570 10572 10574 10576 10579 10584 10592 10600 10604 10608 10611 10613 10615 10617 10622 10629 10635 10641 10644 10642 10638 10639 10649 10659 10665 10670 10669 10667 10667 10666 10665 10664 10664 10665 10666 10667 10669 10670 10670 10671 10673
10355 10357 10359 10361 10363 10365 10368 10371 10372 10374 10379 10387 10394 10399 10402 10405 10407 10411 10415 10419 10424 10429 10433 10438 10444 10447 10450 10459 10469 10471 10472 10477 10485 10491 10498 10503 10505 10510 10515 10520 10526 10531 10536 10540 10547 10554 10559 10561 10563 10565 10569 10575 10582 10589 10595 10598 10601 10604 10606 10608 10610 10615 10622 10628 10634 10637 10636 10633 10637 10646 10654 10660 10664 10662 10660 10661 10660 10659 10658 10660 10661 10663 10663 10663 10664 10665 10666 10667
10345 10347 10349 10351 10353 10355 10358 10360 10361 10365 10372 10378 10383 10387 10390 10393 10396 10401 10405 10410 10416 10422 10426 10432 10436 10438 10447 10457 10460 10459 10465 10472 10476 10483 10492 10495 10498 10503 10508 10514 10520 10524 10529 10534 10541 10548 10552 10554 10556 10561 10567 10573 10579 10585 10589 10591 10594 10598 10600 10601 10604 10611 10617 10622 10627 10630 10631 10630 10635 10643 10650 10654 10656 10654 10655 10655 10653 10652 10653 10656 10658 10659 10660 10659 10659 10659 10660 10661
10335 10337 10338 10340 10342 10345 10347 10349 10352 10357 10362 10367 10372 10376 10379 10382 10386 10391 10396 10402 10410 10415 10419 10425 10428 10433 10444 10447 10446 10453 10461 10463 10468 10478 10485 10487 10492 10497 10503 10510 10515 10518 10523 10530 10537 10543 10546 10548 10552 10558 10564 10570 10576 10581 10583 10585 10589 10593 10593 10595 10601 10607 10611 10615 10620 10624 10626 10628 10633 10639 10644 10646 10648 10649 10650 10648 10647 10647 10649 10652 10654 10655 10656 10655 10654 10653 10654 10654
10326 10327 10329 10331 10332 10335 10337 10339 10343 10347 10352 10357 10362 10365 10368 10371 10376 10381 10389 10398 10404 10408 10413 10417 10420 10428 10436 10437 10441 10449 10450 10453 10463 10471 10474 10479 10486 10492 10498 10505 10508 10512 10517 10526 10533 10536 10538 10542 10548 10553 10560 10566 10572 10574 10575 10579 10584 10585 10585 10590 10597 10601 10605 10608 10613 10618 10622 10625 10630 10634 10637 10638 10641 10644 10644 10643 10644 10645 10644 10645 10648 10650 10650 10650 10649 10649 10648 10649
10318 10319 10321 10322 10322 10325 10327 10330 10333 10337 10342 10347 10351 10354 10357 10361 10366 10374 10385 10392 10396 10400 10404 10408 10414 10423 10428 10431 10437 10440 10440 10449 10459 10461 10465 10474 10482 10488 10493 10497 10500 10505 10513 10521 10524 10525 10529 10537 10542 10548 10556 10560 10563 10565 10568 10574 10577 10576 10578 10586 10593 10597 10599 10602 10608 10613 10618 10622 10626 10628 10630 10631 10635 10638 10638 10640 10642 10642 10640 10640 10642 10643 10644 10644 10645 10644 10644 10643
10310 10311 10312 10312 10313 10315 10318 10321 10324 10327 10331 10336 10340 10343 10347 10352 10360 10370 10380 10385 10387 10392 10396 10400 10408 10415 10420 10426 10429 10430 10435 10445 10451 10455 10464 10472 10477 10482 10485 10489 10494 10502 10510 10515 10516 10520 10528 10535 10540 10547 10551 10553 10556 10560 10565 10568 10569 10570 10576 10583 10588 10591 10593 10597 10603 10609 10614 10619 10621 10623 10624 10626 10629 10631 10634 10637 10639 10638 10636 10636 10636 10636 10637 10638 10638 10638 10638 10638
10302 10302 10302 10302 10303 10306 10308 10311 10314 10317 10321 10326 10330 10335 10340 10346 10355 10366 10373 10375 10378 10383 10387 10393 10400 10408 10415 10420 10420 10423 10432 10440 10446 10454 10462 10469 10474 10478 10481 10487 10495 10502 10507 10510 10513 10520 10529 10535 10539 10543 10544 10547 10553 10558 10561 10563 10566 10571 10576 10579 10583 10586 10589 10594 10600 10606 10611 10615 10616 10618 10620 10621 10623 10627 10630 10633 10634 10634 10633 10632 10631 10631 10632 10633 10633 10633 10633 10633
10292 10292 10292 10293 10294 10296 10298 10301 10304 10307 10311 10316 10321 10326 10332 10340 10351 10358 10362 10365 10369 10373 10378 10385 10394 10403 10409 10409 10410 10417 10427 10435 10443 10451 10458 10464 10470 10475 10481 10487 10493 10500 10505 10507 10511 10520 10527 10531 10534 10535 10538 10545 10551 10554 10557 10560 10565 10570 10573 10575 10579 10582 10587 10592 10598 10603 10608 10610 10611 10613 10615 10617 10620 10623 10625 10628 10630 10630 10629 10627 10626 10627 10628 10628 10628 10629 10628 10628
10282 10282 10282 10283 10285 10287 10288 10291 10295 10299 10303 10308 10313 10318 10325 10334 10341 10344 10349 10357 10360 10363 10370 10379 10388 10395 10398 10401 10405 10413 10421 10430 10439 10446 10452 10458 10464 10470 10476 10483 10489 10495 10497 10500 10508 10517 10522 10525 10528 10531 10536 10543 10547 10551 10555 10559 10563 10567 10569 10571 10574 10579 10585 10590 10595 10600 10603 10604 10606 10608 10611 10614 10618 10620 10621 10623 10625 10624 10623 10622 10622 10623 10624 10624 10625 10625 10624 10624
10273 10273 10274 10275 10277 10278 10281 10284 10288 10292 10296 10302 10307 10312 10318 10322 10326 10331 10340 10348 10350 10354 10364 10373 10380 10385 10391 10395 10401 10409 10419 10428 10435 10440 10446 10453 10460 10466 10473 10479 10486 10488 10489 10494 10504 10511 10516 10520 10525 10529 10535 10540 10544 10548 10550 10553 10556 10559 10561 10564 10568 10574 10580 10585 10590 10594 10597 10598 10600 10603 10607 10611 10615 10617 10617 10618 10618 10617 10616 10617 10618 10620 10621 10621 10621 10620 10620 10619
10266 10266 10267 10269 10270 10272 10275 10279 10283 10287 10291 10296 10300 10304 10307 10311 10318 10327 10334 10339 10342 10348 10358 10366 10373 10380 10385 10390 10396 10405 10415 10423 10430 10437 10443 10449 10456 10463 10469 10475 10480 10481 10484 10492 10500 10506 10511 10516 10521 10525 10530 10535 10538 10541 10543 10545 10549 10552 10556 10560 10564 10570 10574 10579 10584 10587 10590 10592 10595 10599 10604 10607 10612 10613 10613 10613 10612 10610 10611 10612 10613 10615 10616 10617 10616 10616 10615 10614
10260 10261 10262 10263 10266 10268 10272 10275 10278 10281 10285 10288 10291 10295 10301 10308 10316 10323 10328 10332 10337 10343 10351 10360 10367 10374 10379 10386 10396 10404 10411 10418 10425 10432 10438 10443 10449 10455 10462 10469 10472 10475 10481 10490 10497 10502 10507 10511 10515 10520 10525 10529 10532 10535 10537 10540 10544 10549 10554 10558 10562 10566 10570 10574 10578 10582 10585 10589 10592 10597 10601 10605 10608 10609 10609 10608 10605 10604 10605 10606 10608 10610 10611 10612 10612 10611 10611 10610
10255 10256 10258 10260 10263 10265 10268 10271 10274 10277 10279 10282 10287 10293 10300 10306 10311 10315 10320 10325 10332 10338 10346 10354 10361 10368 10375 10385 10394 10402 10409 10415 10421 10427 10432 10437 10444 10451 10457 10462 10465 10470 10478 10486 10492 10497 10502 10506 10510 10515 10520 10523 10527 10530 10533 10536 10541 10546 10550 10554 10558 10562 10566 10569 10574 10578 10582 10586 10590 10594 10598 10602 10604 10605 10605 10602 10599 10599 10600 10601 10602 10604 10606 10607 10607 10607 10606 10605
10252 10253 10255 10258 10260 10262 10265 10267 10270 10273 10276 10282 10288 10294 10298 10302 10306 10310 10315 10321 10328 10336 10343 10351 10358 10365 10373 10382 10389 10396 10404 10411 10417 10422 10428 10434 10442 10449 10454 10457 10462 10468 10475 10481 10486 10492 10496 10501 10507 10512 10516 10520 10523 10526 10530 10534 10538 10543 10547 10551 10555 10559 10563 10566 10570 10575 10579 10583 10588 10591 10594 10597 10600 10600 10599 10596 10594 10595 10596 10596 10596 10597 10600 10601 10602 10601 10601 10600
10249 10251 10253 10255 10257 10260 10262 10265 10268 10271 10277 10283 10288 10292 10296 10300 10304 10309 10314 10321 10328 10335 10343 10350 10357 10364 10370 10377 10384 10391 10399 10406 10412 10419 10426 10433 10440 10445 10450 10454 10459 10466 10473 10479 10484 10489 10493 10499 10505 10509 10513 10517 10520 10524 10527 10532 10537 10542 10547 10551 10554 10558 10561 10564 10567 10572 10575 10579 10584 10587 10590 10593 10594 10594 10593 10591 10590 10590 10590 10589 10590 10592 10594 10594 10595 10595 10595 10595
10248 10249 10251 10253 10255 10257 10260 10264 10268 10273 10278 10283 10286 10290 10294 10298 10302 10308 10314 10322 10329 10336 10343 10348 10355 10362 10368 10375 10381 10388 10395 10402 10409 10416 10424 10431 10436 10442 10447 10452 10457 10464 10471 10477 10483 10486 10491 10498 10503 10506 10510 10513 10518 10522 10526 10530 10535 10540 10545 10548 10551 10555 10558 10561 10564 10567 10570 10575 10579 10582 10585 10587 10588 10589 10588 10586 10584 10584 10583 10583 10585 10586 10587 10587 10588 10589 10589 10588
10247 10248 10250 10252 10254 10257 10260 10264 10269 10274 10279 10282 10286 10289 10293 10298 10303 10309 10315 10323 10330 10335 10342 10348 10355 10361 10369 10376 10382 10387 10394 10401 10408 10415 10421 10428 10434 10440 10445 10450 10456 10463 10469 10476 10481 10485 10490 10496 10501 10504 10507 10511 10516 10520 10524 10528 10533 10538 10541 10544 10547 10551 10555 10557 10559 10562 10566 10569 10573 10576 10579 10581 10583 10584 10583 10580 10578 10577 10576 10577 10580 10581 10580 10581 10582 10582 10583 10582
10246 10248 10250 10253 10255 10258 10262 10266 10271 10276 10279 10283 10286 10290 10294 10300 10306 10311 10317 10324 10330 10336 10343 10350 10356 10362 10369 10376 10383 10390 10396 10403 10409 10415 10421 10427 10433 10439 10444 10449 10454 10461 10468 10474 10478 10482 10488 10494 10498 10502 10505 10510 10514 10517 10522 10527 10531 10534 10537 10540 10544 10548 10550 10553 10556 10558 10561 10563 10567 10570 10573 10576 10577 10577 10575 10574 10572 10570 10570 10572 10574 10574 10574 10575 10576 10577 10577 10576
10245 10247 10251 10254 10257 10260 10265 10269 10273 10277 10280 10284 10287 10291 10297 10302 10308 10314 10320 10327 10334 10341 10348 10353 10359 10365 10371 10377 10385 10393 10399 10405 10410 10416 10421 10427 10433 10438 10442 10447 10453 10460 10466 10471 10475 10480 10486 10491 10495 10499 10503 10507 10511 10515 10519 10524 10528 10530 10533 10536 10540 10543 10546 10549 10551 10553 10556 10558 10562 10565 10568 10570 10570 10568 10568 10567 10565 10565 10566 10567 10567 10568 10569 10569 10571 10572 10572 10571
10246 10248 10251 10256 10260 10263 10268 10272 10275 10278 10282 10285 10289 10295 10300 10305 10310 10317 10324 10331 10339 10345 10352 10358 10363 10368 10373 10380 10387 10394 10400 10406 10412 10417 10423 10428 10432 10437 10441 10446 10453 10459 10464 10468 10473 10478 10483 10487 10492 10497 10501 10505 10509 10512 10516 10520 10524 10526 10529 10532 10535 10538 10542 10544 10545 10548 10551 10554 10557 10559 10562 10563 10562 10561 10562 10561 10560 10560 10561 10561 10562 10563 10563 10563 10565 10566 10566 10566
10248 10250 10253 10257 10262 10267 10270 10274 10277 10281 10284 10288 10293 10298 10302 10307 10314 10322 10329 10335 10342 10348 10354 10360 10366 10371 10376 10382 10387 10394 10400 10406 10412 10417 10422 10427 10432 10436 10440 10446 10451 10456 10461 10465 10470 10474 10480 10485 10489 10494 10497 10501 10504 10507 10511 10514 10517 10520 10523 10526 10529 10533 10536 10538 10540 10543 10546 10549 10551 10553 10555 10555 10555 10556 10556 10555 10555 10555 10556 10557 10558 10557 10556 10557 10559 10560 10560 10560
10249 10252 10256 10260 10264 10270 10273 10276 10280 10284 10289 10293 10299 10303 10307 10313 10322 10329 10335 10340 10346 10352 10357 10362 10368 10374 10379 10383 10388 10394 10400 10405 10410 10416 10421 10426 10431 10435 10440 10444 10449 10454 10458 10462 10467 10472 10477 10482 10486 10490 10492 10495 10497 10500 10503 10505 10508 10512 10516 10519 10521 10525 10529 10532 10534 10536 10539 10542 10545 10547 10548 10549 10550 10550 10550 10550 10550 10551 10552 10553 10552 10551 10550 10551 10553 10554 10554 10554
10252 10254 10258 10262 10268 10273 10277 10280 10283 10288 10294 10299 10304 10309 10315 10323 10329 10334 10340 10344 10350 10355 10360 10366 10371 10376 10381 10386 10391 10396 10401 10405 10410 10414 10419 10423 10428 10433 10437 10441 10445 10450 10455 10459 10464 10469 10473 10478 10482 10485 10488 10491 10494 10496 10499 10502 10505 10509 10512 10515 10517 10520 10524 10527 10528 10531 10533 10536 10539 10541 10543 10543 10544 10545 10545 10545 10545 10546 10547 10547 10547 10546 10544 10544 10547 10548 10548 10548
10255 10257 10261 10265 10270 10275 10280 10283 10287 10292 10298 10304 10308 10314 10322 10329 10333 10337 10343 10348 10352 10357 10363 10368 10372 10377 10382 10387 10392 10396 10400 10404 10408 10412 10416 10420 10424 10428 10432 10437 10443 10448 10452 10456 10461 10465 10469 10474 10478 10481 10484 10487 10490 10493 10496 10499 10503 10507 10510 10512 10514 10517 10520 10523 10524 10527 10529 10531 10534 10536 10537 10538 10539 10540 10540 10540 10540 10540 10541 10541 10541 10540 10539 10539 10540 10541 10542 10542
10258 10262 10265 10270 10274 10278 10283 10288 10292 10297 10303 10308 10313 10319 10326 10331 10335 10340 10345 10349 10354 10358 10363 10368 10373 10378 10383 10387 10392 10395 10398 10402 10406 10411 10415 10418 10422 10424 10428 10433 10438 10443 10447 10452 10457 10461 10465 10469 10473 10476 10480 10483 10486 10489 10491 10494 10498 10502 10504 10507 10510 10512 10515 10517 10519 10522 10525 10526 10528 10530 10531 10532 10532 10533 10534 10534 10534 10534 10535 10535 10535 10534 10533 10533 10534 10534 10535 10535
10263 10267 10271 10275 10278 10283 10288 10293 10298 10303 10309 10314 10319 10324 10330 10334 10338 10342 10346 10350 10354 10358 10363 10368 10372 10377 10382 10386 10391 10394 10398 10402 10406 10410 10414 10418 10421 10425 10429 10433 10436 10440 10445 10449 10453 10457 10461 10465 10469 10472 10475 10478 10481 10484 10487 10490 10494 10497 10499 10502 10505 10507 10509 10511 10513 10516 10518 10520 10521 10523 10525 10526 10526 10527 10527 10528 10528 10528 10528 10528 10528 10528 10527 10527 10528 10528 10528 10528
10268 10272 10276 10279 10283 10288 10293 10298 10304 10310 10314 10319 10324 10328 10333 10337 10340 10344 10348 10352 10356 10360 10364 10368 10373 10377 10380 10384 10388 10393 10397 10401 10404 10408 10413 10416 10420 10425 10429 10433 10437 10441 10445 10448 10452 10455 10459 10462 10466 10468 10471 10474 10477 10480 10482 10485 10489 10492 10495 10497 10500 10502 10504 10505 10507 10509 10512 10513 10514 10516 10518 10519 10520 10520 10521 10522 10522 10522 10521 10521 10521 10520 10520 10521 10522 10521 10521 10521
10272 10276 10280 10284 10288 10293 10297 10302 10307 10313 10317 10321 10326 10330 10334 10338 10342 10346 10350 10354 10358 10362 10366 10369 10373 10377 10381 10384 10388 10391 10395 10399 10402 10406 10411 10415 10419 10423 10427 10431 10434 10438 10441 10445 10449 10452 10455 10459 10462 10464 10467 10471 10474 10476 10478 10480 10483 10486 10490 10492 10495 10496 10498 10500 10501 10503 10505 10507 10508 10509 10510 10512 10514 10515 10515 10516 10516 10515 10515 10514 10514 10513 10513 10515 10516 10515 10515 10515